This demonstration page uses our WeatherBlox Daily Observations layout. Learn more.

Left ArrowRight Arrow

Hourly Observations for October 31, 2015

Temp ( °F °C ) Dew Point ( °F °C ) Humidity (%) Winds ( mph kmh ) Pressure ( in mb ) Visibility ( mi km ) Precip ( " mm )
12:15 am 00:15 Clear 43 6 41 5 93 93 W 5 7 30.21 1023 10 16 N/A
12:35 am 00:35 Clear 43 6 41 5 93 93 WNW 6 9 30.21 1023 10 16 N/A
12:55 am 00:55 Clear 41 5 39 4 93 93 W 6 9 30.21 1023 10 16 N/A
1:15 am 01:15 Clear 43 6 41 5 93 93 WNW 3 6 30.21 1023 10 16 N/A
1:35 am 01:35 Clear 45 7 41 5 87 87 N N/A 30.21 1023 10 16 N/A
1:55 am 01:55 Clear 43 6 41 5 93 93 NW 3 6 30.21 1023 10 16 N/A
2:15 am 02:15 Clear 43 6 39 4 87 87 WNW 3 6 30.21 1023 10 16 N/A
2:35 am 02:35 Clear 41 5 39 4 93 93 W 3 6 30.24 1024 10 16 N/A
2:55 am 02:55 Clear 41 5 41 5 100 100 N N/A 30.21 1023 10 16 N/A
3:15 am 03:15 Clear 39 4 37 3 93 93 N N/A 30.24 1024 10 16 N/A
3:35 am 03:35 Clear 41 5 39 4 93 93 N N/A 30.24 1024 10 16 N/A
3:55 am 03:55 Clear 41 5 39 4 93 93 N N/A 30.24 1024 10 16 N/A
4:15 am 04:15 Clear 39 4 37 3 93 93 N N/A 30.24 1024 10 16 N/A
4:35 am 04:35 Clear 41 5 41 5 100 100 N N/A 30.24 1024 10 16 N/A
4:55 am 04:55 Clear 39 4 39 4 100 100 N N/A 30.24 1024 10 16 N/A
5:15 am 05:15 Clear 41 5 37 3 87 87 N N/A 30.24 1024 10 16 N/A
5:35 am 05:35 Clear 37 3 37 3 100 100 N N/A 30.24 1024 10 16 N/A
5:55 am 05:55 Clear 37 3 37 3 100 100 N N/A 30.24 1024 10 16 N/A
6:15 am 06:15 Clear 37 3 37 3 100 100 N N/A 30.24 1024 10 16 N/A
6:35 am 06:35 Clear 37 3 37 3 100 100 N N/A 30.24 1024 10 16 N/A
6:55 am 06:55 Clear 36 2 36 2 100 100 N N/A 30.24 1024 10 16 N/A
7:15 am 07:15 Clear 36 2 36 2 100 100 N N/A 30.27 1025 10 16 N/A
7:35 am 07:35 Clear 36 2 36 2 100 100 W 5 7 30.27 1025 7 11 N/A
7:55 am 07:55 Sunny 36 2 36 2 100 100 N N/A 30.27 1025 7 11 N/A
8:15 am 08:15 Sunny 37 3 37 3 100 100 N N/A 30.27 1025 10 16 N/A
8:35 am 08:35 Sunny 37 3 37 3 100 100 N N/A 30.27 1025 10 16 N/A
8:55 am 08:55 Sunny 41 5 41 5 100 100 N N/A 30.30 1026 10 16 N/A
9:15 am 09:15 Sunny 43 6 43 6 100 100 N N/A 30.27 1025 10 16 N/A
9:35 am 09:35 Sunny 46 8 43 6 87 87 N N/A 30.30 1026 10 16 N/A
9:55 am 09:55 Sunny 48 9 43 6 82 82 N N/A 30.30 1026 10 16 N/A
10:15 am 10:15 Sunny 50 10 43 6 76 76 N N/A 30.30 1026 10 16 N/A
10:35 am 10:35 Sunny 50 10 41 5 71 71 N N/A 30.27 1025 10 16 N/A
10:55 am 10:55 Sunny 52 11 41 5 67 67 SE 5 7 30.27 1025 10 16 N/A
11:15 am 11:15 Sunny 54 12 41 5 63 63 SE 5 7 30.24 1024 10 16 N/A
11:35 am 11:35 Sunny 54 12 39 4 58 58 SSE 5 7 30.21 1023 10 16 N/A
11:55 am 11:55 Sunny 55 13 41 5 59 59 SSE 6 9 30.24 1024 10 16 N/A
12:15 pm 12:15 Sunny 55 13 39 4 55 55 undefined N/A 30.24 1024 10 16 N/A
12:35 pm 12:35 Sunny 57 14 41 5 55 55 SSE 9 15 30.21 1023 10 16 N/A
12:55 pm 12:55 Sunny 59 15 41 5 51 51 S 10 17 30.21 1023 10 16 N/A
1:15 pm 13:15 Sunny 59 15 41 5 51 51 S 12 19 30.18 1022 10 16 N/A
1:35 pm 13:35 Sunny 59 15 41 5 51 51 S 5 7 30.18 1022 10 16 N/A
1:55 pm 13:55 Sunny 59 15 41 5 51 51 SSW 7 11 30.18 1022 10 16 N/A
2:15 pm 14:15 Sunny 59 15 41 5 51 51 SSW 9 15 30.15 1021 10 16 N/A
2:35 pm 14:35 Sunny 61 16 41 5 48 48 S 9 15 30.15 1021 10 16 N/A
2:55 pm 14:55 Sunny 61 16 41 5 48 48 S 13 20 30.12 1020 10 16 N/A
3:15 pm 15:15 Sunny 61 16 43 6 52 52 SSW 7 11 30.12 1020 10 16 N/A
3:35 pm 15:35 Sunny 61 16 43 6 52 52 SSW 12 19 30.12 1020 10 16 N/A
3:55 pm 15:55 Sunny 59 15 43 6 55 55 SSW 10 17 30.15 1021 10 16 N/A
4:15 pm 16:15 Sunny 59 15 43 6 55 55 SSW 8 13 30.12 1020 10 16 N/A
4:35 pm 16:35 Sunny 59 15 43 6 55 55 SSW 6 9 30.12 1020 10 16 N/A
4:55 pm 16:55 Sunny 59 15 43 6 55 55 S 9 15 30.12 1020 10 16 N/A
5:15 pm 17:15 Sunny 59 15 43 6 55 55 S 8 13 30.12 1020 10 16 N/A
5:35 pm 17:35 Sunny 59 15 43 6 55 55 S 9 15 30.12 1020 10 16 N/A
5:55 pm 17:55 Sunny 59 15 43 6 55 55 S 9 15 30.12 1020 10 16 N/A
6:15 pm 18:15 Clear 57 14 43 6 59 59 S 10 17 30.12 1020 10 16 N/A
6:35 pm 18:35 Clear 55 13 43 6 63 63 S 7 11 30.12 1020 10 16 N/A
6:55 pm 18:55 Clear 55 13 43 6 63 63 S 6 9 30.12 1020 10 16 N/A
7:15 pm 19:15 Clear 55 13 45 7 67 67 S 6 9 30.12 1020 10 16 N/A
7:35 pm 19:35 Clear 55 13 45 7 67 67 S 5 7 30.12 1020 10 16 N/A
8:15 pm 20:15 Clear 54 12 45 7 72 72 S 6 9 30.12 1020 10 16 N/A
8:35 pm 20:35 Clear 54 12 45 7 72 72 S 5 7 30.09 1019 10 16 N/A
8:55 pm 20:55 Clear 55 13 45 7 67 67 SSE 7 11 30.09 1019 10 16 N/A
9:15 pm 21:15 Clear 54 12 45 7 72 72 S 7 11 30.06 1018 10 16 N/A
9:35 pm 21:35 Clear 54 12 45 7 72 72 S 7 11 30.06 1018 10 16 N/A
9:55 pm 21:55 Clear 54 12 45 7 72 72 S 7 11 30.06 1018 10 16 N/A
10:15 pm 22:15 Clear 54 12 45 7 72 72 S 6 9 30.06 1018 10 16 N/A
10:35 pm 22:35 Clear 54 12 45 7 72 72 S 6 9 30.06 1018 10 16 N/A
10:55 pm 22:55 Clear 54 12 45 7 72 72 S 7 11 30.03 1017 10 16 N/A

Powered by AerisWeather